Lid_Strength_Index
8 8 7 6 4 3 3 3 2 2 2 2 2 4 3 4 4 3 2 1 0 1 2 3 5 6 7 8 8 9 10 12 12 13 15 14 14 15 15 15 15 15 15
9 8 8 8 6 3 3 2 3 3 2 2 2 2 4 5 4 4 3 3 1 1 2 3 4 6 7 8 9 9 11 11 12 13 14 16 15 16 15 16 16 16 16
9 9 9 9 7 5 3 3 2 3 2 3 5 7 6 7 6 6 4 4 3 1 1 2 3 4 6 8 9 10 10 12 12 12 12 16 16 18 15 16 16 17 17
9 9 9 9 8 5 4 3 3 3 3 5 5 5 4 4 4 4 5 5 5 4 2 2 3 5 5 7 9 10 9 10 12 12 12 11 14 16 18 16 17 17 17
10 9 9 8 8 7 6 5 5 5 4 4 4 5 4 6 7 6 6 6 6 6 4 2 3 4 4 5 7 9 8 9 10 11 12 12 14 14 16 19 18 17 18
9 9 9 8 8 8 8 7 6 6 6 5 6 5 4 7 7 7 7 7 6 6 5 4 2 3 3 4 6 8 8 8 9 10 9 11 13 13 16 18 18 18 18
9 9 8 9 9 8 8 7 7 7 6 6 6 6 5 6 6 7 6 7 7 6 4 4 3 3 3 4 5 7 8 8 9 10 9 10 10 12 14 16 18 18 18
9 9 9 9 9 9 8 7 7 7 7 7 6 6 6 6 5 6 6 5 6 6 6 5 4 4 4 5 6 7 8 8 9 9 10 9 10 12 13 15 17 19 19
9 9 8 8 8 9 8 8 8 8 8 7 7 7 6 6 6 6 6 5 6 6 6 6 6 5 6 6 6 7 8 8 9 9 10 10 11 12 13 14 15 15 20
9 9 9 9 9 9 8 8 8 8 8 8 7 7 6 6 5 6 6 7 6 7 7 7 6 6 6 7 7 8 8 9 9 9 10 10 10 11 12 13 14 16 16
9 9 9 9 9 9 9 8 8 8 8 8 8 8 7 7 7 6 6 7 7 7 7 8 7 7 8 8 7 7 8 9 9 9 10 10 10 12 14 15 16 16 16
8 8 8 9 9 9 9 9 9 9 8 8 8 8 8 8 8 7 7 8 7 8 8 9 9 9 8 8 8 9 9 10 10 10 11 11 14 14 15 15 16 15 16
8 8 8 8 8 9 9 9 9 8 8 8 8 8 8 8 8 8 8 8 8 9 10 11 11 11 11 10 9 9 10 10 10 11 12 12 15 15 16 15 16 16 16
8 8 8 8 9 8 8 9 9 9 9 9 9 9 9 8 8 9 9 9 9 10 12 12 12 13 14 12 12 11 11 11 11 11 12 13 15 15 16 16 16 17 17
9 8 8 8 8 9 8 8 9 9 9 9 9 9 9 9 9 10 11 11 11 11 12 13 14 14 14 13 13 13 12 13 13 14 14 14 14 14 14 15 16 16 17
9 8 8 8 8 8 8 8 9 9 10 10 10 9 10 11 12 12 12 12 13 13 14 14 14 15 14 12 12 13 14 14 14 15 16 15 15 14 14 14 14 15 17
9 9 9 9 9 9 9 10 10 10 11 12 12 13 13 13 12 12 13 13 13 14 14 15 15 16 15 13 12 12 15 15 15 16 16 16 15 15 15 13 13 14 13
10 10 10 10 10 11 11 12 13 13 13 13 14 13 14 14 15 15 14 14 14 15 16 17 17 17 16 13 12 13 16 15 15 15 15 15 16 15 15 15 15 15 15
10 10 10 11 11 11 13 14 14 14 13 13 13 13 14 16 16 16 16 16 17 18 18 17 17 15 16 13 13 13 16 16 16 16 15 15 15 14 13 16 16 16 15
10 11 11 12 12 12 13 14 14 15 14 14 14 14 15 17 17 16 17 18 18 17 16 15 15 15 15 13 12 14 16 17 16 16 16 15 14 13 13 15 15 16 16
9 9 11 11 12 13 14 14 14 14 15 16 16 16 17 18 18 18 19 19 17 16 16 16 16 16 15 14 12 13 15 16 16 16 16 15 13 12 12 13 14 14 14
10 10 11 11 12 13 14 14 14 14 16 17 18 19 20 17 18 19 21 21 18 16 17 17 16 16 15 13 12 13 14 14 16 16 15 14 12 12 11 12 12 12 13
9 10 12 12 13 16 16 15 15 16 17 18 16 18 19 18 19 18 19 20 19 16 17 17 17 17 16 14 12 12 12 13 15 15 14 13 11 11 10 10 11 12 13
11 13 14 14 14 17 16 16 17 17 17 15 15 15 16 18 20 18 18 18 19 17 17 17 17 17 17 16 14 13 12 13 13 13 13 12 12 11 12 13 11 11 12
12 15 15 14 15 17 17 17 16 17 17 14 14 14 15 17 18 17 15 15 15 15 18 19 18 18 19 18 13 12 13 13 13 13 13 13 13 13 13 13 13 14 16
13 15 16 17 18 19 19 15 16 16 15 14 14 14 15 16 16 14 13 11 11 11 12 12 14 14 14 12 11 11 11 10 11 12 13 13 13 13 13 14 17 17 16